x

8419317 - Wells, Me (welm1) Weather Station

7:30 - Thu 25th Dec 2014 All times are EST. -5 hours from GMT.

  • Wind
    2mph, 3mph gusts
  • Sea Temp 39°f
  • Luft Temp 40°f
  • Sea Pressure 996.1mb
  • 8419317 - Wells, Me
  • 8419317 - Wells, Me

More Historic Weather Station data

Upgrade to MSW Pro to gain access to the past 30 days of data for over 8000 Wavebouys and Weather Stations around the globe.

Join Pro

Comparision Forecast

View Surf forecast
   
Do 12/25 7:30 2 3 mph 996.1mb 39f 40f
7:24 5
mph
996.1mb 39f 40f
7:12 3
mph
996.5mb 39f 40f
7:06 2 3 mph 996.5mb 39f 40f
7:00 2
mph
996.1mb 39f 40f
6:54 1 3 mph 996.3mb 39f 40f
6:48 2 5 mph 996.9mb 39f 40f
6:42 2 3 mph 996.5mb 39f 40f
6:36 2 3 mph 996.7mb 39f 39f
6:30 1 3 mph 996.2mb 39f 39f
6:24 3 5 mph 996.9mb 39f 39f
6:18 3
mph
996.8mb 39f 39f
6:12  -  2 mph 996.5mb 39f 39f
6:06 1
mph
996.4mb 39f 39f
5:54 1 2 mph 996.9mb 39f 39f
5:48  -  1 mph 996.9mb 39f 39f
5:42  -  2 mph 997mb 39f 39f
5:36  -  2 mph 996.8mb 39f 39f
5:30  -  2 mph 996.4mb 39f 39f
5:24 1
mph
996.6mb 39f 39f
5:18  -  1 mph 996.8mb 39f 39f
5:12  -  mph 997mb 39f 39f
5:06  -  2 mph 997.2mb 39f 39f
5:00 2
mph
997.2mb 39f 39f
4:54  -  2 mph 997.4mb 39f 39f
4:48  -  1 mph 997.3mb 39f 39f
4:42  -  2 mph 997.5mb 39f 39f
4:36 1 3 mph 997.5mb 39f 39f
4:30 2 3 mph 997.5mb 39f 39f
4:24 2 5 mph 997.3mb 39f 39f
4:18 2 3 mph 997mb 39f 39f
4:12 2 3 mph 997.7mb 39f 39f
4:06 2
mph
997.6mb 39f 39f
4:00  -  1 mph 997.9mb 39f 39f
3:54  -  1 mph 997.8mb 39f 39f
3:48 2 3 mph 998mb 39f 39f
3:42 2
mph
998.2mb 39f 39f
3:36 2
mph
998.4mb 39f 39f
3:30  -  1 mph 998.6mb 39f 39f
3:24  -  2 mph 998.5mb 39f 39f
3:18 2 3 mph 998.6mb 39f 39f
3:12 1 2 mph 998.6mb 39f 39f
3:06 2
mph
998.6mb 39f 39f
3:00  -  2 mph 998.7mb 39f 39f
2:54 2 3 mph 999mb 39f 39f
2:48 2 5 mph 999mb 39f 39f
2:42 5
mph
998.9mb 39f 39f
2:36 3 5 mph 998.6mb 39f 39f
2:30 3 5 mph 998.3mb 39f 39f
2:24 5 6 mph 998.3mb 39f 39f
2:18 5 6 mph 998.4mb 39f 39f
2:12 3
mph
999mb 39f 39f
2:06 2 3 mph 999.3mb 40f 39f
2:00 2 3 mph 999.4mb 40f 39f
1:54 3 5 mph 999.5mb 40f 39f
1:48 3 6 mph 999.3mb 40f 39f
1:36 6 7 mph 999.2mb 40f 39f
1:30 6 7 mph 999.3mb 40f 39f
1:24 6 8 mph 999.3mb 40f 39f
1:18 6 9 mph 999.2mb 40f 39f
1:12 7 9 mph 999.3mb 40f 39f
1:06 7 8 mph 999.5mb 40f 39f
1:00 5 6 mph 999.3mb 40f 39f
12:54 6 8 mph 999.6mb 40f 39f
12:48 7 8 mph 999.8mb 40f 39f
12:42 6 8 mph 999.7mb 40f 39f
12:36 7 8 mph 1000mb 40f 39f
12:30 7 9 mph 1000mb 39f 38f
12:24 7 9 mph 1000.1mb 39f 38f
12:18 7 8 mph 1000.1mb 39f 38f
12:12 7 8 mph 1000.1mb 39f 38f
12:06 6 7 mph 1000.2mb 39f 38f
12:00 5 6 mph 1000mb 39f 38f
Mi 12/24 11:54 6
mph
1000.4mb 39f 38f
11:48 3 5 mph 1000.7mb 39f 38f
11:42 3 9 mph 1000.9mb 39f 38f
11:36 7 8 mph 1001mb 39f 38f
11:30 5 9 mph 1001mb 39f 38f
11:24 8 9 mph 1001mb 39f 38f
11:18 7 10 mph 1001.2mb 39f 38f
11:12 8 10 mph 1001.2mb 39f 38f
11:06 8 9 mph 1001.2mb 39f 38f
11:00 7 8 mph 1001.3mb 39f 38f
10:54 7 9 mph 1001.5mb 39f 38f
10:48 7 8 mph 1001.7mb 39f 38f
10:42 6 8 mph 1002mb 39f 38f
10:36 7 8 mph 1002.1mb 39f 38f
10:30 7 9 mph 1002.3mb 39f 38f
10:24 8 10 mph 1002.3mb 39f 38f
10:18 8 11 mph 1002.3mb 39f 38f
10:12 8 13 mph 1002.4mb 39f 38f
10:06 9 11 mph 1002.7mb 39f 38f
10:00 9 13 mph 1002.8mb 39f 38f
9:54 10 13 mph 1002.8mb 39f 38f
9:48 8 10 mph 1003mb 39f 38f
9:42 8 9 mph 1003.1mb 39f 38f
9:36 7 9 mph 1003.3mb 39f 38f
9:30 7 8 mph 1003.5mb 39f 38f
9:24 5 8 mph 1003.6mb 39f 38f
9:18 6 7 mph 1003.6mb 39f 38f
9:12 7 8 mph 1003.7mb 39f 38f
9:06 6 9 mph 1003.8mb 39f 38f
9:00 8 9 mph 1004mb 39f -
8:54 6 10 mph 1004.4mb 39f -
8:48 8 10 mph 1004.3mb 39f 38f
8:36 6 11 mph 1004.9mb 39f 38f
8:30 8 10 mph 1004.9mb 39f 38f
8:24 9 10 mph 1005mb 39f 38f
8:18 8 10 mph 1005.2mb 39f 38f
8:12 7 9 mph 1005.5mb 39f 38f
8:06 8 10 mph 1005.5mb 39f 38f
8:00 8 10 mph 1005.7mb 39f 38f
7:54 8 10 mph 1005.8mb 39f 38f
7:42 8 11 mph 1006.2mb 39f 38f
7:36 8 11 mph 1006.3mb 39f 38f
7:30 9 11 mph 1006.6mb 39f 38f
7:18 8 13 mph 1006.9mb 39f 38f
7:12 8 10 mph 1007.1mb 39f 38f
7:06 8 10 mph 1007.2mb 39f 38f
7:00 8 13 mph 1007.3mb 39f 38f
6:54 10 13 mph 1007.4mb 39f 38f
6:48 9 13 mph 1007.6mb 39f 38f
6:36 10 13 mph 1007.8mb 39f 38f
6:30 9 11 mph 1007.9mb 39f 38f
6:24 9 11 mph 1008mb 39f 38f
6:18 9 11 mph 1008.1mb 39f 38f
5:54 7 9 mph 1008.5mb 39f 38f
5:48 8 9 mph 1008.6mb 39f 38f
5:42 8 10 mph 1008.7mb 39f 38f
5:36 8 10 mph 1008.8mb 39f 38f
5:30 6 8 mph 1008.8mb 39f 38f
5:24 8 10 mph 1008.7mb 39f 38f
5:18 7 9 mph 1008.7mb 39f 38f
5:06 8 10 mph 1008.7mb 39f 38f
5:00 9 11 mph 1009mb 39f 38f
4:54 8 10 mph 1009.3mb 39f 38f
4:48 8 9 mph 1009.4mb 39f 38f
4:42 7 8 mph 1009.6mb 39f 38f
4:36 6 8 mph 1009.7mb 39f 38f
4:30 7 9 mph 1009.8mb 39f 38f
4:24 7 9 mph 1009.9mb 39f 38f
4:06 7 10 mph 1010.2mb 39f 38f
4:00 8 11 mph 1010.3mb 39f 39f
3:54 8 10 mph 1010.3mb 39f 39f
3:48 8 9 mph 1010.3mb 39f 39f
3:42 7 10 mph 1010.6mb 39f 39f
3:36 7 9 mph 1010.7mb 39f 39f
3:30 8 11 mph 1010.7mb 39f 39f
3:24 8 10 mph 1010.9mb 39f 39f
3:18 8 11 mph 1011mb 39f 39f
3:06 8 10 mph 1011.3mb 39f 39f
3:00 8 10 mph 1011.3mb 39f 39f
2:54 7 13 mph 1011.6mb 39f 39f
2:48 9 11 mph 1011.8mb 39f 39f
2:42 8 10 mph 1011.9mb 39f 39f
2:30 7 9 mph 1012.1mb 39f 39f
2:24 7 9 mph 1012.3mb 39f 39f
2:18 8 10 mph 1012.4mb 39f 39f
2:12 8 9 mph 1012.6mb 39f 39f
2:06 8 9 mph 1012.7mb 39f 39f
2:00 7 8 mph 1012.7mb 39f 39f
1:54 7 9 mph 1012.9mb 39f 39f
1:48 7 9 mph 1012.9mb 39f 39f
1:42 8 9 mph 1013mb 39f 39f
1:36 8 9 mph 1013.1mb 39f 39f
1:30 9 10 mph 1013mb 39f 39f
1:24 8 9 mph 1013.1mb 39f 39f
1:18 8 9 mph 1013.2mb 39f 39f
1:12 8 9 mph 1013.5mb 39f 39f
1:06 9 10 mph 1013.5mb 39f 39f
12:54 8 9 mph 1013.9mb 39f 38f
12:48 9 10 mph 1013.8mb 39f 38f
12:42 8 10 mph 1013.9mb 39f 38f
12:36 10 14 mph 1013.9mb 39f 38f
12:30 9 10 mph 1014mb 39f 38f
12:18 8 10 mph 1014.5mb 39f 38f
12:12 8 9 mph 1014.7mb 39f 38f
12:06 7 9 mph 1014.9mb 39f 38f
11:54 8 10 mph 1015.4mb 39f 38f
11:48 9 10 mph 1015.6mb 39f 38f
11:42 8 9 mph 1015.9mb 39f 38f
11:36 7 10 mph 1016.1mb 39f 38f
11:30 8 9 mph 1016.2mb 39f 38f
11:24 7 10 mph 1016.3mb 39f 38f
11:18 9 11 mph 1016.4mb 39f 38f
11:12 10 13 mph 1016.6mb 39f 38f
11:06 9 11 mph 1016.9mb 39f 38f
11:00 9 11 mph 1017mb 39f 38f
10:54 8 11 mph 1017mb 39f 38f
10:48 9 11 mph 1017mb 39f 38f
10:42 8 10 mph 1017.1mb 39f 38f
10:36 8 10 mph 1017.3mb 39f 38f
10:30 9 10 mph 1017.4mb 39f 38f
10:24 9 11 mph 1017.4mb 39f 38f
10:18 8 10 mph 1017.5mb 39f 38f
10:12 8 10 mph 1017.7mb 39f 38f
10:06 8 10 mph 1017.8mb 39f 38f
10:00 9 10 mph 1017.8mb 39f 38f
9:48 8 11 mph 1018.1mb 39f 38f
9:42 9 10 mph 1018.2mb 39f 38f
9:36 7 9 mph 1018.3mb 39f 38f
9:30 8 10 mph 1018.2mb 39f 38f
9:24 9 11 mph 1018mb 39f 37f
9:18 9 13 mph 1017.9mb 39f 37f
9:06 8 9 mph 1018mb 39f 37f
9:00 7 13 mph 1018mb 39f 37f
8:54 9 15 mph 1017.8mb 39f 37f
8:48 10 13 mph 1017.8mb 39f 37f
8:36 13 15 mph 1017.8mb 38f 37f
8:30 10 13 mph 1018.2mb 38f 37f
8:24 9 13 mph 1018.7mb 38f 37f
8:18 9 13 mph 1018.8mb 38f 37f
8:12 10 13 mph 1018.9mb 38f 37f
8:00 9 11 mph 1019mb 38f 37f
7:54 9 14 mph 1018.7mb 38f 37f
7:48 11 14 mph 1018.6mb 38f 36f
7:42 9 14 mph 1019mb 38f 36f
7:36 9 13 mph 1019.3mb 38f 36f
7:30 10 11 mph 1019.5mb 38f 36f
7:24 10 11 mph 1019.8mb 38f 37f
7:12 7 11 mph 1020.2mb 38f 37f
7:00 8 10 mph 1020.2mb 38f 37f
6:54 8 11 mph 1020.1mb 38f 37f
6:48 8 11 mph 1020.1mb 38f 36f
6:42 8 10 mph 1020.1mb 38f 36f
6:36 9 13 mph 1020mb 38f 36f
6:30 10 13 mph 1019.9mb 39f 36f
6:24 13 16 mph 1019.8mb 39f 36f
6:18 13 15 mph 1019.9mb 39f 36f
6:12 13 15 mph 1019.9mb 39f 36f
6:06 11 15 mph 1020mb 39f 36f
6:00 9 14 mph 1020.1mb 39f 36f
5:54 10 14 mph 1019.9mb 39f 36f
5:48 10 14 mph 1020mb 39f 36f
5:42 10 14 mph 1019.9mb 39f 36f
5:36 13 14 mph 1019.7mb 39f 36f
5:30 11 14 mph 1019.8mb 39f 36f
5:24 13 15 mph 1019.9mb 39f 36f
5:18 13 16 mph 1020mb 39f 36f
5:12 14 17 mph 1020mb 39f 36f
5:06 13 16 mph 1020.2mb 39f 36f
5:00 10 14 mph 1020.4mb 39f 37f
4:54 10 13 mph 1020.6mb 39f 37f
4:48 9 11 mph 1020.6mb 39f 37f
4:42 9 13 mph 1020.5mb 39f 37f
4:36 9 13 mph 1020.4mb 39f 37f
4:30 9 13 mph 1020.3mb 39f 37f
4:24 9 13 mph 1020.4mb 39f 37f
4:18 9 14 mph 1020.3mb 39f 37f
4:12 10 13 mph 1020.4mb 39f 37f
4:06 11 14 mph 1020.4mb 39f 37f
4:00 9 14 mph 1020.3mb 39f 37f
3:54 10 14 mph 1020.2mb 39f 37f
3:48 11 13 mph 1020.1mb - -
3:42 11 16 mph 1020.2mb - -
3:36 10 13 mph 1020.3mb - -
3:30 10 13 mph 1020.5mb - -
3:18 10 13 mph 1020.7mb 39f 36f
3:12 10 14 mph 1020.9mb 39f 36f
3:06 10 13 mph 1021mb 39f 36f
3:00 10 14 mph 1020.9mb 39f 36f
2:54 10 14 mph 1020.9mb 39f 37f
2:48 11 15 mph 1020.7mb 39f 36f
2:42 13 15 mph 1020.7mb 39f 36f
2:36 10 14 mph 1021mb 39f 36f
2:30 10 14 mph 1021mb 39f 37f
2:24 11 15 mph 1021.2mb 39f 37f
2:18 13 14 mph 1021.2mb 39f 37f
2:06 11 15 mph 1021.1mb 39f 37f
2:00 11 14 mph 1021mb 39f 36f
1:54 11 15 mph 1021.1mb 39f 36f
1:48 14 16 mph 1021mb 39f 36f
1:42 13 15 mph 1021.2mb 39f 36f
1:36 13 15 mph 1021.1mb 39f 36f
1:30 11 14 mph 1021.3mb 39f 36f
1:24 13 14 mph 1021.5mb 39f 36f
1:18 10 14 mph 1021.5mb 39f 37f
1:12 11 14 mph 1021.5mb 39f 36f
1:06 11 14 mph 1021.6mb 39f 36f
1:00 11 14 mph 1021.6mb 39f 36f
12:54 10 14 mph 1021.5mb 39f 37f
12:48 9 11 mph 1021.6mb 39f 37f
12:42 10 13 mph 1021.8mb 39f 37f
12:36 11 14 mph 1021.7mb 39f 37f
12:30 11 15 mph 1021.9mb 39f 37f
12:24 13 14 mph 1021.9mb 39f 37f
12:18 11 14 mph 1022mb 39f 37f
12:12 10 14 mph 1022.2mb 39f 37f
12:06 10 14 mph 1022.1mb 39f 37f
12:00 13 14 mph 1022.1mb 39f 37f
Di 12/23 11:54 11 13 mph 1022.1mb 39f 37f
11:48 8 14 mph 1022mb 39f 37f
11:42 11 14 mph 1022.1mb 39f 37f
11:36 9 11 mph 1022.1mb 39f 37f
11:30 9 14 mph 1022.1mb 39f 37f
11:24 13 15 mph 1022.1mb 39f 37f
11:18 13 15 mph 1022mb 39f 37f
11:12 11 14 mph 1022mb 39f 37f
11:06 13 15 mph 1022.1mb 39f 37f
11:00 11 16 mph 1022mb 39f 36f
10:54 13 15 mph 1022mb 39f 36f
10:48 14 16 mph 1022.2mb 39f 36f
10:42 13 16 mph 1022.1mb 39f 36f
10:36 11 15 mph 1022.3mb 39f 36f
10:30 11 16 mph 1022.5mb 39f 36f
10:24 13 15 mph 1022.5mb 39f 36f
10:18 13 16 mph 1022.5mb 39f 37f
10:12 11 15 mph 1022.5mb 39f 36f
10:06 11 14 mph 1022.6mb 39f 37f
10:00 10 14 mph 1022.7mb 39f 37f
9:54 10 11 mph 1022.7mb 39f 37f
9:48 10 14 mph 1022.7mb 39f 37f
9:42 14 16 mph 1022.6mb 39f 37f
9:36 11 15 mph 1022.6mb 39f 37f
9:30 13 16 mph 1022.4mb 39f 37f
9:24 11 15 mph 1022.2mb 39f 37f
9:18 13 15 mph 1022.4mb 39f 37f
9:12 10 15 mph 1022.4mb 39f 37f
9:06 14 16 mph 1022.5mb 39f 37f
9:00 14 15 mph 1022.6mb 39f 37f
8:54 11 15 mph 1022.6mb 39f 37f
8:48 14 15 mph 1022.6mb 39f 36f
8:42 13 15 mph 1022.7mb 39f 37f
8:36 11 14 mph 1022.8mb 39f 36f
8:30 11 15 mph 1023mb 38f 36f
8:24 10 15 mph 1022.9mb 38f 36f
8:18 11 16 mph 1022.9mb 38f 37f
8:12 11 14 mph 1022.8mb 38f 37f
8:06 13 15 mph 1022.9mb 38f 37f
8:00 11 14 mph 1023.1mb 38f 37f
7:54 10 16 mph 1023.3mb 38f 37f
7:48 11 14 mph 1023.3mb 38f 37f
7:42 11 15 mph 1023.1mb 38f 37f
7:36 11 15 mph 1023.2mb 38f 37f
7:30 10 14 mph 1023.2mb 38f 36f
7:24 11 15 mph 1023.1mb 39f 36f
7:18 11 15 mph 1023.2mb 39f 36f
7:12 11 15 mph 1023.2mb 39f 36f
7:06 13 16 mph 1023mb 39f 36f
7:00 11 16 mph 1023mb 39f 36f
6:54 11 16 mph 1022.8mb 39f 36f
6:48 13 17 mph 1022.8mb 39f 36f
6:42 14 16 mph 1022.9mb 39f 36f
6:36 11 16 mph 1023.1mb 39f 36f
6:30 14 16 mph 1023mb 39f 36f
6:24 10 14 mph 1023mb 39f 36f
6:18 11 16 mph 1023mb 39f 36f
6:12 11 16 mph 1023mb 39f 36f
6:06 11 14 mph 1022.8mb 39f 36f
6:00 13 17 mph 1023mb 39f 37f
5:54 14 18 mph 1023mb 39f 36f
5:48 13 15 mph 1022.9mb 39f 37f
5:42 11 15 mph 1023.1mb 39f 37f
5:36 11 16 mph 1023.2mb 39f 37f
5:24 14 16 mph 1023.3mb 39f 37f
5:18 13 15 mph 1023.1mb 39f 37f
5:12 11 14 mph 1023mb 39f 37f
5:06 13 14 mph 1023mb 39f 37f
5:00 10 15 mph 1023mb 39f 37f
4:54 10 14 mph 1023mb 39f 37f
4:48 10 14 mph 1023.2mb 39f 37f
4:42 11 14 mph 1023.3mb 39f 37f
4:36 10 13 mph 1023.4mb 39f 37f
4:30 9 13 mph 1023.3mb 39f 37f
4:24 9 13 mph 1023.2mb 39f 37f
4:18 10 13 mph 1023.1mb 39f 37f
4:12 11 14 mph 1023.1mb 39f 37f
4:06 10 13 mph 1023.2mb 39f 37f
4:00 10 14 mph 1023.3mb 39f 37f
3:54 10 14 mph 1023.3mb 39f 37f
3:48 9 11 mph 1023.3mb 39f 37f
3:42 10 13 mph 1023.3mb 39f 37f
3:36 9 14 mph 1023.4mb 39f 38f
3:30 10 13 mph 1023.4mb 39f 38f
3:24 9 13 mph 1023.2mb 39f 38f
3:18 10 13 mph 1023.1mb 39f 38f
3:06 9 11 mph 1023.2mb 39f 38f
3:00 9 11 mph 1023.3mb 39f 38f
2:54 9 13 mph 1023.4mb 39f 38f
2:48 9 13 mph 1023.3mb 39f 38f
2:42 9 14 mph 1023.2mb 39f 38f
2:36 11 14 mph 1023.4mb 39f 38f
2:30 11 15 mph 1023.3mb 39f 38f
2:24 11 14 mph 1023.1mb 39f 38f
2:18 11 14 mph 1023.2mb 39f 39f
2:06 9 11 mph 1023.2mb 39f 42f
2:00 9 13 mph 1023.2mb 39f 42f
1:54 9 14 mph 1023.1mb 39f 42f
1:48 11 15 mph 1023.1mb 39f 42f
1:42 13 14 mph 1023mb 39f 42f
1:36 10 14 mph 1022.9mb 39f 42f
1:30 10 16 mph 1023.1mb 39f 42f
1:24 10 13 mph 1023.2mb 39f 42f
1:18 9 15 mph 1023.3mb 39f 42f
1:06 11 15 mph 1023.3mb 39f 42f
1:00 9 14 mph 1023.4mb 39f 42f
12:54 11 15 mph 1023.3mb 39f 42f
12:48 10 15 mph 1023.4mb 39f 42f
12:42 11 15 mph 1023.4mb 39f 42f
12:36 10 14 mph 1023.4mb 39f 42f
12:30 10 14 mph 1023.4mb 39f 42f
12:24 10 16 mph 1023.8mb 39f 42f
12:18 9 14 mph 1023.9mb 39f 42f
12:12 11 14 mph 1023.9mb 39f 42f
12:06 11 14 mph 1023.9mb 39f 41f
12:00 11 15 mph 1023.9mb 39f 41f
11:54 11 16 mph 1024mb 39f 41f
11:48 14 17 mph 1024mb 39f 41f
11:42 11 17 mph 1024.1mb 39f 41f
11:36 14 16 mph 1024mb 39f 41f
11:30 14 17 mph 1024.1mb 39f 41f
11:24 13 18 mph 1024.5mb 39f 41f
11:18 14 17 mph 1024.6mb 39f 42f
11:12 14 17 mph 1024.7mb 39f 42f
11:06 14 20 mph 1024.6mb 39f 42f
11:00 14 20 mph 1024.8mb 39f 42f
10:54 15 18 mph 1025.1mb 39f 42f
10:48 16 18 mph 1025.3mb 39f 42f
10:42 16 21 mph 1025.3mb 39f 42f
10:36 14 18 mph 1025.4mb 39f 42f
10:30 14 17 mph 1025.4mb 39f 42f
10:24 14 18 mph 1025.6mb 39f 42f
10:18 15 18 mph 1025.8mb 39f 42f
10:12 14 20 mph 1025.8mb 39f 41f
10:06 17 22 mph 1025.9mb 39f 41f
10:00 16 18 mph 1025.9mb 39f 41f
9:54 14 21 mph 1026mb 39f 41f
9:48 15 21 mph 1026.1mb 39f 41f
9:42 16 20 mph 1026.3mb 39f 41f
9:36 15 20 mph 1026.3mb 39f 41f
9:30 15 21 mph 1026.3mb 39f 41f
9:24 14 18 mph 1026.3mb 39f 41f
9:18 15 22 mph 1026.4mb 39f 42f
9:12 16 20 mph 1026.3mb 39f 42f
9:06 16 20 mph 1026.2mb 39f 41f
9:00 13 22 mph 1026.2mb 39f 41f
8:54 13 21 mph 1026mb 39f 41f
8:48 11 18 mph 1025.9mb 39f 41f
8:42 14 17 mph 1025.8mb 39f 41f
8:36 10 15 mph 1025.9mb 39f 41f
8:30 10 16 mph 1025.9mb 39f 41f
8:24 11 17 mph 1025.9mb 39f 41f
8:18 13 15 mph 1025.8mb 39f 41f
8:12 14 17 mph 1026mb 38f 41f
8:06 14 16 mph 1026.2mb 38f 41f
8:00 8 16 mph 1026.4mb 38f 40f
7:54 7 11 mph 1026.4mb 38f 37f
7:48 6 11 mph 1026.7mb 38f 37f
7:42 6 11 mph 1026.6mb 38f 37f
7:36 7 8 mph 1026.5mb 37f 37f
7:30 7 9 mph 1026.5mb 37f 36f
7:24 7 8 mph 1026.5mb 37f 36f
7:18 6 7 mph 1026.5mb 37f 36f
7:12 6
mph
1026.6mb 37f 36f
7:06 5 8 mph 1026.7mb 37f 36f
7:00 7 8 mph 1026.6mb 37f 36f
6:54 8 11 mph 1026.9mb 37f 36f
6:48 8 9 mph 1026.8mb 37f 36f
6:42 6 8 mph 1026.5mb 37f 36f
6:36 7 9 mph 1026.4mb 37f 36f
6:30 8 10 mph 1026.4mb 38f 36f
6:24 7 10 mph 1026.4mb 38f 37f
6:18 7 9 mph 1026.4mb 38f 37f
6:12 5 7 mph 1026.5mb 38f 37f
6:06 6 9 mph 1026.5mb 38f 38f
6:00 9 14 mph 1026.4mb 38f 41f
5:54 9 13 mph 1026.3mb 38f 42f
5:48 10 15 mph 1026.1mb 38f 42f
5:42 11 16 mph 1025.7mb 38f 42f
5:36 13 17 mph 1025.3mb 38f 42f
5:30 13 15 mph 1025mb 38f 41f
5:24 6 8 mph 1024.9mb 38f 37f
5:18 5 8 mph 1024.7mb 38f 37f
5:12 7 9 mph 1024.5mb 38f 36f
5:06 6 8 mph 1024.7mb 38f 37f
5:00 6 8 mph 1024.5mb 38f 36f
4:54 7 11 mph 1024.7mb 38f 37f
4:48 9 15 mph 1024.7mb 38f 37f
4:42 8 10 mph 1024.8mb 38f 36f
4:36 7 8 mph 1025mb 38f 35f
4:30 6 8 mph 1025.2mb 38f 35f
4:24 6 9 mph 1025.3mb 38f 35f
4:18 8 9 mph 1025.5mb 38f 35f
4:12 7 8 mph 1025.6mb 38f 35f
4:06 7 9 mph 1025.7mb 38f 35f
4:00 8 9 mph 1025.8mb 38f 35f
3:54 8 10 mph 1025.8mb 38f 35f
3:48 8 9 mph 1025.6mb 38f 35f
3:42 8 11 mph 1025.8mb 38f 35f
3:36 7 9 mph 1025.8mb 38f 36f
3:24 7 8 mph 1025.8mb 38f 35f
3:18 7 8 mph 1025.8mb 38f 35f
3:12 7 8 mph 1025.8mb 38f 35f
3:06 8 9 mph 1025.8mb 38f 35f
3:00 8 9 mph 1026mb 38f 35f
2:54 9 10 mph 1026mb 38f 35f
2:48 8 9 mph 1026.1mb 38f 35f
2:42 6 7 mph 1026.4mb 38f 35f
2:30 6 9 mph 1026.4mb 38f 35f
2:24 7 9 mph 1026.1mb 38f 35f
2:18 8 11 mph 1026mb 38f 35f
2:12 9 10 mph 1025.8mb 38f 34f
2:06 7 9 mph 1025.9mb 38f 34f
2:00 8 10 mph 1026mb 38f 34f
1:54 9 10 mph 1025.7mb 38f 34f
1:48 9 10 mph 1025.9mb 38f 34f
1:42 5 6 mph 1025.8mb 38f 35f
1:36 5 7 mph 1026.1mb 38f 34f
1:30 5
mph
1026.6mb 38f 35f
1:24 5 6 mph 1026.7mb 38f 35f
1:18 5 7 mph 1026.4mb 38f 35f
1:12 7 8 mph 1026.2mb 39f 35f
1:06 8 9 mph 1026.1mb 39f 34f
1:00 6 8 mph 1026.2mb 39f 34f
12:54 6 7 mph 1026.2mb 39f 34f
12:48 6 9 mph 1026.2mb 39f 34f
12:42 8
mph
1026.2mb 39f 34f
12:36 7 8 mph 1026mb 39f 35f
12:30 7 9 mph 1026mb 39f 35f
12:24 7 9 mph 1026mb 39f 35f
12:18 6 7 mph 1026.1mb 39f 35f
12:12 7 8 mph 1026.1mb 39f 35f
12:06 6 8 mph 1026.2mb 39f 35f
12:00 7 8 mph 1026.4mb 39f 35f
Mo 12/22 11:54 7 8 mph 1026.4mb 39f 34f
11:48 8 9 mph 1026.4mb 39f 34f
11:42 7 8 mph 1026.5mb 39f 35f
11:36 6 8 mph 1026.5mb 39f 35f
11:30 7 9 mph 1026.7mb 39f 34f
11:24 8 9 mph 1026.6mb 39f 34f
11:18 7 8 mph 1026.6mb 39f 34f
11:12 7 8 mph 1026.8mb 39f 34f
11:06 7 9 mph 1026.9mb 39f 34f
11:00 8 11 mph 1026.9mb 39f 35f
10:54 10 14 mph 1026.7mb 39f 34f
10:48 10 13 mph 1026.7mb 39f 34f
10:36 8 9 mph 1026.7mb 39f 34f
10:30 7 9 mph 1026.9mb 39f 34f
10:24 7 9 mph 1027mb 39f 34f
10:18 7 10 mph 1026.9mb 39f 34f
10:12 9 10 mph 1026.7mb 39f 34f
10:06 7 9 mph 1026.9mb 39f 34f
10:00 7 10 mph 1027.1mb 39f 34f
9:54 9 11 mph 1026.9mb 39f 34f
9:48 8 9 mph 1026.9mb 39f 34f
9:42 7 9 mph 1027mb 39f 34f
9:36 8 10 mph 1026.9mb 39f 34f
9:30 7 10 mph 1026.9mb 39f 34f
9:24 7 9 mph 1026.9mb 39f 34f
9:18 8 9 mph 1027mb 39f 34f
9:12 8 10 mph 1027mb 39f 34f
9:06 8 10 mph 1026.9mb 39f 34f
9:00 6 7 mph 1027.1mb 39f 34f
8:54 6 9 mph 1027.3mb 39f 34f
8:48 7 10 mph 1027.2mb 39f 34f
8:42 8 10 mph 1027.2mb 39f 34f
8:36 8 11 mph 1027.2mb 39f 34f
8:30 8 10 mph 1027.2mb 39f 34f
8:24 9 11 mph 1027.3mb 38f 34f
8:18 9 11 mph 1027.4mb 38f 34f
8:12 9 10 mph 1027.4mb 38f 34f
8:06 8 9 mph 1027.4mb 38f 34f
8:00 8 9 mph 1027.4mb 38f 34f
7:54 7 8 mph 1027.4mb 38f 34f
7:48 6 8 mph 1027.3mb 38f 34f
7:42 3
mph
1027.3mb 38f 34f
7:30 8 11 mph 1027.1mb 38f 34f
7:24 9 11 mph 1027mb 38f 34f
7:12 9 10 mph 1027.3mb 38f 34f
7:06 9 11 mph 1027.2mb 38f 34f
7:00 10 13 mph 1027.1mb 38f 34f
6:54 10 13 mph 1027.2mb 38f 34f
6:48 9 13 mph 1027.3mb 38f 34f
6:42 10 14 mph 1027.3mb 38f 34f
6:36 10 13 mph 1027.3mb 38f 35f
6:30 10 13 mph 1027.4mb 38f 35f
6:24 9 14 mph 1027.6mb 38f 35f
6:18 11 14 mph 1027.5mb 38f 35f
6:12 10 13 mph 1027.4mb 38f 35f
6:06 10 11 mph 1027.3mb 38f 35f
6:00 8 10 mph 1027.4mb 38f 35f
5:54 9 11 mph 1027.2mb 38f 36f
5:48 9 10 mph 1027.1mb 38f 36f
5:42 7 9 mph 1027.2mb 38f 37f
5:36 9 11 mph 1027.1mb 38f 37f
5:30 8 9 mph 1027.2mb 38f 37f
5:24 8 11 mph 1027.3mb 38f 37f
5:18 8 10 mph 1027.5mb 38f 37f
5:12 8 9 mph 1027.5mb 38f 37f
5:06 8 10 mph 1027.5mb 38f 37f
5:00 7 9 mph 1027.2mb 38f 37f
4:54 7 10 mph 1027.1mb 38f 38f
4:48 8 10 mph 1027.1mb 38f 38f
4:42 7 11 mph 1026.9mb 38f 38f
4:36 10 11 mph 1026.7mb 38f 38f
4:30 7 14 mph 1026.7mb 38f 38f
4:24 8 11 mph 1026.8mb 38f 38f
4:18 9 11 mph 1026.8mb 38f 38f
4:12 8 11 mph 1026.8mb 38f 38f
4:06 9 11 mph 1026.8mb 38f 38f
4:00 8 10 mph 1026.9mb 38f 38f
3:54 9 14 mph 1026.9mb 38f 38f
3:48 10 13 mph 1026.9mb 38f 38f
3:42 8 10 mph 1027mb 38f 38f
3:36 8 11 mph 1027.1mb 38f 38f
3:30 8 13 mph 1027.1mb 38f 38f
3:24 9 11 mph 1027.3mb 38f 38f
3:18 8 10 mph 1027.4mb 38f 39f
3:12 7 9 mph 1027.4mb 38f 39f
3:06 8 9 mph 1027.3mb 38f 39f
3:00 8 13 mph 1027.3mb 38f 39f
2:54 7 9 mph 1027.2mb 38f 39f
2:48 8 9 mph 1027.3mb 38f 39f
2:42 8 10 mph 1027.2mb 38f 39f
2:36 7 8 mph 1027.3mb 38f 39f
2:30 6 8 mph 1027.5mb 38f 39f
2:24 7 8 mph 1027.5mb 38f 39f
2:18 7 8 mph 1027.5mb 38f 39f
2:12 6 8 mph 1027.5mb 38f 39f
2:06 5 7 mph 1027.5mb 38f 39f
2:00 6 7 mph 1027.5mb 38f 39f
1:54 6 7 mph 1027.6mb 38f 39f
1:48 5 7 mph 1027.6mb 38f 39f
1:42 6 7 mph 1027.5mb 38f 39f
1:36 6 7 mph 1027.6mb 38f 39f
1:30 3 6 mph 1027.6mb 38f 39f
1:24 5 6 mph 1027.5mb 38f 39f
1:18 3 5 mph 1027.4mb 38f 39f
1:12 5 8 mph 1027.3mb 38f 39f
1:06 6 7 mph 1027.3mb 38f 39f
1:00 5 7 mph 1027.3mb 39f 39f
12:54 6 8 mph 1027.2mb 39f 39f
12:48 6 8 mph 1027.2mb 39f 38f
12:42 7 8 mph 1027.3mb 39f 38f
12:36 6 7 mph 1027.4mb 39f 38f
12:30 6 8 mph 1027.4mb 39f 38f
12:24 7 8 mph 1027.4mb 39f 38f
12:18 6 8 mph 1027.4mb 39f 38f
12:12 6 8 mph 1027.4mb 39f 37f
12:00 7 9 mph 1027.5mb 39f 37f
11:54 6 9 mph 1027.6mb 39f 37f
11:48 7 8 mph 1027.6mb 39f 37f
11:42 6 8 mph 1027.7mb 39f 36f
11:36 6 8 mph 1027.8mb 39f 36f
11:30 7 8 mph 1028mb 39f 36f
11:24 6 7 mph 1028.2mb 39f 36f
11:18 5 6 mph 1028.4mb 39f 36f
11:06 5 6 mph 1028.7mb 39f 35f
11:00 5 6 mph 1028.8mb 39f 35f
10:54 3
mph
1029mb 39f 35f
10:48 3
mph
1029.1mb 39f 35f
10:42 2 3 mph 1029.2mb 39f 35f
10:36 2 7 mph 1029.2mb 39f 35f
10:30 6 9 mph 1029.1mb 39f 35f
10:24 7 8 mph 1029mb 39f 34f
10:18 7 9 mph 1029.1mb 39f 34f
10:12 8 9 mph 1029.1mb 39f 34f
10:06 5 7 mph 1029.3mb 39f 34f
10:00 6 9 mph 1029.3mb 39f 34f
9:54 7 10 mph 1029.2mb 39f 34f
9:48 7 8 mph 1029.3mb 39f 33f
9:42 6 9 mph 1029.3mb 39f 33f
9:36 8 10 mph 1029.2mb 38f 33f
9:30 8 10 mph 1029.2mb 38f 33f
9:24 8 10 mph 1029.2mb 38f 33f
9:18 8 10 mph 1029.2mb 38f 33f
9:12 8 10 mph 1029.1mb 38f 32f
9:06 7 11 mph 1029.1mb 38f 33f
9:00 8 13 mph 1029.1mb 38f 33f
8:54 9 13 mph 1029.1mb 38f 32f
8:48 9 11 mph 1029.1mb 38f 32f
8:42 8 11 mph 1029.1mb 38f 32f
8:36 9 10 mph 1029mb 38f 32f
8:30 7 10 mph 1029.1mb 38f 32f
8:24 8 10 mph 1029mb 38f 32f
8:18 7 8 mph 1029.1mb 38f 32f
8:12 7 9 mph 1029.1mb 38f 31f
8:06 8 9 mph 1029mb 38f 31f
8:00 9 11 mph 1028.9mb 38f 32f
7:54 9 11 mph 1028.9mb 38f 31f
7:48 8 10 mph 1028.8mb 38f 31f
7:42 9 11 mph 1028.8mb 38f 31f
7:36 7 10 mph 1028.9mb 38f 31f
7:30 9 11 mph 1028.8mb 38f 31f
7:24 7 9 mph 1028.8mb 38f 31f
7:18 8 11 mph 1028.8mb 38f 31f
7:12 8 10 mph 1028.8mb 38f 31f
7:06 8 10 mph 1028.8mb 38f 31f
7:00 8 10 mph 1028.8mb 38f 31f
6:54 7 9 mph 1028.9mb 38f 31f
6:48 8 10 mph 1028.8mb 38f 31f
6:42 6 8 mph 1028.8mb 37f 31f
6:36 6 9 mph 1028.8mb 36f 31f
6:30 7 9 mph 1028.8mb 36f 31f
6:24 7 9 mph 1028.7mb 36f 31f
6:18 7 9 mph 1028.7mb 36f 31f
6:12 5 7 mph 1028.7mb 36f 31f
6:06 6 9 mph 1028.6mb 36f 31f
6:00 7 9 mph 1028.5mb 36f 31f
5:54 7 9 mph 1028.4mb 37f 31f
5:48 8 9 mph 1028.3mb 37f 31f
5:42 7 8 mph 1028.4mb 37f 31f
5:36 6 7 mph 1028.4mb 37f 31f
5:30 6 8 mph 1028.3mb 37f 31f
5:24 6 8 mph 1028.2mb 38f 31f
5:12 6 9 mph 1028.1mb 38f 31f
5:06 7 11 mph 1028mb 38f 31f
5:00 7 8 mph 1027.9mb 38f 31f
4:54 7 9 mph 1028mb 38f 31f
4:48 7 9 mph 1027.9mb 38f 31f
4:42 7 9 mph 1027.9mb 38f 31f
4:36 8 10 mph 1027.8mb 38f 31f
4:30 7 9 mph 1027.7mb 38f 31f
4:24 7 10 mph 1027.7mb 38f 31f
4:18 6 10 mph 1027.7mb 38f 31f
4:12 7 9 mph 1027.7mb 38f 31f
4:06 7 9 mph 1027.7mb 38f 31f
4:00 7 9 mph 1027.7mb 38f 31f
3:54 8 10 mph 1027.7mb 38f 31f
3:48 7 9 mph 1027.7mb 38f 31f
3:42 7 9 mph 1027.7mb 38f 31f
3:36 6 9 mph 1027.8mb 38f 31f
3:30 7 9 mph 1027.8mb 38f 31f
3:24 7 9 mph 1027.8mb 38f 31f
3:18 6 9 mph 1027.8mb 38f 31f
3:12 6 8 mph 1027.9mb 38f 31f
3:06 6 7 mph 1027.9mb 38f 31f
3:00 6 7 mph 1028mb 38f 31f
2:54 6 8 mph 1028.1mb 38f 31f
2:48 6 7 mph 1028.1mb 38f 31f
2:42 6 7 mph 1028.2mb 38f 31f
2:36 5 6 mph 1028.3mb 38f 31f
2:30 5 6 mph 1028.3mb 38f 31f
2:24 5 7 mph 1028.3mb 38f 31f
2:18 6 7 mph 1028.1mb 38f 31f
2:12 6 7 mph 1028.2mb 38f 31f
2:06 5 7 mph 1028.2mb 38f 31f
2:00 5 6 mph 1028.2mb 38f 31f
1:54 6 7 mph 1028.1mb 38f 31f
1:48 3 5 mph 1028.1mb 38f 31f
1:42 5 6 mph 1028mb 38f 31f
1:36 6 8 mph 1027.9mb 38f 31f
1:30 6 7 mph 1027.9mb 38f 31f
1:24 6 7 mph 1027.9mb 38f 31f
1:18 5 6 mph 1027.9mb 38f 31f
1:12 6 8 mph 1027.9mb 38f 31f
1:06 8 10 mph 1027.9mb 38f 31f
1:00 6 9 mph 1027.9mb 38f 31f
12:54 6 9 mph 1027.8mb 38f 31f
12:48 7 9 mph 1027.8mb 39f 31f
12:42 7 11 mph 1027.8mb 38f 31f
12:36 8 11 mph 1027.8mb 39f 31f
12:30 9 13 mph 1027.8mb 39f 31f
12:24 10 11 mph 1027.7mb 39f 31f
12:06 8 10 mph 1027.7mb 39f 31f
12:00 7 10 mph 1027.9mb 39f 31f
So 12/21 11:54 7 10 mph 1027.8mb 39f 31f
11:48 8 10 mph 1027.9mb 39f 31f
11:42 6 9 mph 1027.8mb 39f 31f
11:36 7 9 mph 1028mb 39f 31f
11:30 8 9 mph 1027.9mb 39f 31f
11:24 7 8 mph 1028mb 39f 31f
11:18 7 9 mph 1028mb 39f 31f
11:12 6 7 mph 1027.9mb 39f 31f
11:06 7 9 mph 1028mb 39f 31f
11:00 6 9 mph 1028mb 39f 31f
10:54 6 8 mph 1027.9mb 39f 31f
10:48 7 9 mph 1027.8mb 39f 31f
10:42 6 8 mph 1027.9mb 39f 31f
10:36 7 8 mph 1027.8mb 39f 31f
10:30 7
mph
1027.9mb 39f 31f
10:24 6 7 mph 1027.8mb 39f 31f
10:18 6 7 mph 1027.8mb 39f 31f
10:12 6 7 mph 1027.8mb 39f 31f
10:06 5 7 mph 1027.8mb 39f 31f
10:00 5 7 mph 1027.8mb 39f 31f
9:54 6 7 mph 1027.8mb 39f 31f
9:48 6 7 mph 1027.7mb 39f 31f
9:42 6 8 mph 1027.6mb 39f 31f
9:36 6 8 mph 1027.6mb 39f 31f
9:30 6 7 mph 1027.6mb 39f 31f
9:24 6 7 mph 1027.7mb 39f 31f
9:18 5 7 mph 1027.7mb 39f 31f
9:12 5 6 mph 1027.6mb 39f 31f
9:06 6 7 mph 1027.6mb 39f 31f
9:00 6 8 mph 1027.6mb 39f 31f
8:54 6
mph
1027.6mb 39f 31f
8:48 6 7 mph 1027.6mb 39f 31f
8:42 5 6 mph 1027.7mb 39f 31f
8:36 3 6 mph 1027.7mb 39f 31f
8:30 3 6 mph 1027.6mb 39f 31f
8:24 5 6 mph 1027.6mb 39f 31f
8:18 5 7 mph 1027.6mb 39f 31f
8:12 5 6 mph 1027.5mb 39f 31f
8:00 5 6 mph 1027.5mb 39f 31f
7:54 5 6 mph 1027.4mb 39f 31f
7:48 5 6 mph 1027.4mb 38f 31f
7:36 3 6 mph 1027.5mb 38f 31f
7:30 3 5 mph 1027.4mb 38f 31f
7:24 3 5 mph 1027.6mb 38f 31f
7:18 3 5 mph 1027.6mb 38f 31f
7:12 3 6 mph 1027.6mb 38f 31f
7:06 6 8 mph 1027.5mb 38f 31f
7:00 5 7 mph 1027.5mb 37f 31f
6:54 5 6 mph 1027.5mb 37f 31f
6:48 5 6 mph 1027.5mb 36f 31f
6:42 3 6 mph 1027.5mb 36f 31f
6:36 5 7 mph 1027.5mb 36f 31f
6:30 5 6 mph 1027.5mb 36f 31f
6:24 5 6 mph 1027.5mb 36f 31f
6:18 5 6 mph 1027.5mb 36f 31f
6:12 5 7 mph 1027.4mb 36f 31f
6:06 3 5 mph 1027.3mb 36f 31f
6:00 5 6 mph 1027.2mb 36f 31f
5:54 5 6 mph 1027.1mb 36f 30f
5:48 5 6 mph 1027.1mb 36f 31f
5:42 5 6 mph 1027.1mb 36f 30f
5:36 5 6 mph 1027mb 37f 30f
5:30 5 7 mph 1026.8mb 37f 30f
5:24 6
mph
1026.8mb 37f 30f
5:18 6 7 mph 1026.7mb 37f 31f
5:00 3 5 mph 1026.6mb 37f 31f
4:54 2 3 mph 1026.6mb 37f 31f
4:48 2 3 mph 1026.6mb 37f 31f
4:42 1 2 mph 1026.5mb 37f 31f
4:36 2 3 mph 1026.5mb 37f 31f
4:30 3 5 mph 1026.4mb 37f 31f
4:24 5 6 mph 1026.3mb 37f 31f
4:18 5 6 mph 1026.3mb 37f 31f
4:12 5 6 mph 1026.3mb 37f 31f
4:06 3 5 mph 1026.3mb 37f 31f
4:00 3 6 mph 1026.4mb 37f 31f
3:54 5 6 mph 1026.3mb 37f 32f
3:48 3 7 mph 1026.3mb 37f 32f
3:42 6 7 mph 1026.2mb 38f 32f
3:36 6
mph
1026.2mb 38f 32f
3:30 5 6 mph 1026.1mb 38f 32f
3:24 3 6 mph 1026.1mb 38f 32f
3:18 5 7 mph 1026mb 38f 32f
3:12 5 7 mph 1026.1mb 38f 32f
3:06 7 10 mph 1026.1mb 38f 32f
3:00 7 9 mph 1026.1mb 38f 32f
2:54 7 8 mph 1026.1mb 38f 32f
2:48 7 8 mph 1026.1mb 38f 32f
2:42 7 8 mph 1026.1mb 38f 32f
2:36 6 7 mph 1026mb 38f 32f
2:30 6 7 mph 1026mb 38f 32f
2:24 6 7 mph 1025.9mb 38f 32f
2:18 6 8 mph 1025.9mb 38f 32f
2:12 7 10 mph 1025.9mb 38f 32f
2:06 6 9 mph 1025.8mb 38f 32f
2:00 7 9 mph 1025.9mb 38f 32f
1:54 6 9 mph 1025.8mb 38f 32f
1:48 8 9 mph 1025.8mb 38f 31f
1:42 6 7 mph 1025.8mb 38f 31f
1:36 5 8 mph 1025.8mb 38f 31f
1:30 6 8 mph 1025.7mb 38f 31f
1:24 7 10 mph 1025.7mb 38f 31f